Temperature
19 19 19 19 18 18 18 18 18 18 17 17 17 17 17 17 17 17 16 16 16 16 16 16 16 16 16 16 16 16 16 15 15 16 16 16 16 16 16 16 15 15 15
19 19 19 19 18 18 18 18 18 18 17 17 17 17 17 17 17 17 17 16 16 16 16 16 16 16 16 16 16 16 16 15 15 15 16 16 16 15 15 15 15 15 15
19 19 19 18 18 18 18 18 18 17 17 17 17 17 17 17 17 17 17 17 16 16 16 16 16 16 16 16 16 15 15 15 15 15 15 15 15 15 15 15 15 15 15
19 19 19 18 18 18 18 18 18 17 17 17 17 17 17 17 17 17 16 16 16 16 16 16 16 16 16 15 15 15 15 15 15 15 15 15 15 15 15 15 15 15 15
19 19 18 18 18 18 18 18 17 17 17 17 17 17 17 17 17 16 16 16 16 16 16 16 16 16 15 15 15 15 15 15 15 15 15 15 15 15 14 14 14 14 15
19 19 18 18 18 17 17 17 17 17 17 17 17 17 17 17 16 16 16 16 16 16 16 16 16 15 15 15 15 15 15 15 15 15 14 14 14 14 14 14 14 14 14
18 18 18 18 17 17 17 17 17 17 17 16 16 16 16 16 16 16 16 15 16 15 15 15 15 15 15 15 15 15 15 15 14 14 14 14 14 14 14 14 14 14 14
18 17 17 17 17 17 17 17 16 16 16 16 16 16 16 16 16 15 15 15 15 15 15 15 15 15 15 15 15 15 15 14 14 14 14 14 14 14 14 14 13 13 13
17 17 17 17 17 17 16 16 16 16 16 16 16 16 15 15 15 15 15 15 15 15 14 14 14 14 14 14 14 14 14 14 14 14 14 14 14 14 13 13 13 13 13
17 17 17 17 16 16 16 16 15 15 15 15 15 15 15 15 15 15 15 14 14 14 14 14 14 14 14 14 14 14 14 14 14 14 14 14 13 13 13 13 13 13 13
16 16 16 16 16 16 15 15 15 15 15 15 14 14 14 14 15 14 14 14 14 14 14 14 14 14 14 14 14 14 14 14 13 13 13 13 13 13 13 13 13 12 12
16 16 16 15 15 15 15 15 15 14 14 14 14 14 14 14 14 14 14 13 13 13 13 13 13 13 13 13 13 13 13 13 13 13 13 13 13 13 13 13 12 12 12
15 15 15 15 15 15 14 14 14 14 14 14 13 13 13 13 13 13 13 13 13 13 13 13 13 13 13 13 13 13 13 12 12 12 12 12 12 12 12 12 12 12 12
15 15 15 14 14 14 14 14 14 14 13 13 13 13 13 13 12 12 12 12 13 12 12 12 12 12 12 12 12 12 12 12 12 12 12 12 11 11 11 11 11 11 11
15 14 14 14 14 14 13 13 13 13 13 13 13 12 12 12 12 12 12 12 12 12 12 12 12 12 12 12 12 12 11 11 11 11 11 11 11 11 11 11 11 11 11
14 14 14 14 13 13 13 13 13 13 12 12 12 12 12 11 11 11 11 11 11 11 11 11 11 11 11 11 11 11 11 11 11 10 10 10 10 10 10 10 10 10 10
14 14 14 13 13 13 13 12 12 12 12 12 12 12 11 11 11 11 11 11 11 11 10 10 10 10 10 10 10 10 10 10 10 10 10 10 9 9 9 9 9 9 9
13 13 13 13 13 12 12 12 12 12 12 12 11 11 11 11 11 11 11 11 11 10 10 10 10 10 10 10 10 10 9 9 9 9 9 9 9 9 9 9 9 8 8
13 13 12 12 12 12 12 12 12 12 11 11 11 11 11 10 10 10 10 10 10 10 10 10 9 9 9 9 9 9 9 9 9 8 8 8 8 8 8 8 8 8 8
12 12 12 12 12 11 11 11 11 11 11 11 11 10 10 10 10 10 10 10 9 9 9 9 9 9 9 9 9 8 8 8 8 8 8 8 8 8 8 8 7 7 7
12 12 11 11 11 11 11 11 11 11 11 10 10 10 10 10 10 10 9 9 9 9 9 8 8 8 8 8 8 8 8 7 8 7 7 7 7 7 7 7 7 7 7
11 11 11 11 11 11 11 11 10 10 10 10 10 10 10 10 9 9 9 9 9 8 8 8 8 8 8 8 7 7 7 7 7 7 7 7 7 6 6 6 6 6 6
11 11 11 11 10 10 10 10 10 10 10 10 10 9 9 9 9 9 9 9 8 8 8 8 7 7 7 7 7 7 7 6 6 6 6 6 6 6 6 6 6 6 5
11 11 10 10 10 10 10 10 10 10 9 9 9 9 9 9 9 8 8 8 8 8 7 7 7 7 7 6 6 6 6 6 6 6 6 6 6 5 5 5 5 5 5
10 10 10 10 10 10 10 10 9 9 9 9 9 8 8 8 8 8 8 7 7 7 7 7 6 6 6 6 6 6 6 6 5 5 5 5 5 5 5 4 4 4 4
10 10 10 10 9 9 9 9 9 9 9 8 8 8 8 7 7 7 7 7 7 6 6 6 6 6 6 6 5 5 5 5 5 4 4 4 4 4 4 4 4 4 4
Wind_Speed
6 6 5 5 5 4 4 3 3 3 3 3 4 3 3 4 4 3 3 2 3 2 2 3 3 3 3 3 2 3 3 3 4 4 2 2 3 3 3 4 5 6 6
5 5 5 4 4 4 4 4 3 3 3 4 4 4 4 4 4 5 5 4 4 4 4 3 4 3 3 3 3 3 4 4 4 5 3 2 3 3 2 3 3 4 5
4 5 4 4 4 4 4 3 3 3 3 4 4 4 4 4 5 5 5 5 4 5 4 4 4 3 3 3 3 3 3 4 4 4 4 2 2 2 2 2 2 2 4
5 5 5 5 5 4 3 3 3 4 4 4 4 5 5 5 5 5 5 4 4 4 5 5 5 5 6 5 4 4 4 3 3 4 4 3 3 2 1 2 3 2 3
5 5 6 5 5 4 4 4 4 4 4 3 4 4 4 5 5 5 5 5 5 5 4 5 5 6 6 6 5 5 5 4 3 3 4 3 3 2 2 2 3 3 3
6 6 5 5 5 5 5 4 4 4 3 3 3 4 5 5 6 7 6 5 5 5 5 5 5 5 6 7 7 7 7 6 5 5 4 5 5 4 3 3 3 2 3
5 4 4 4 4 5 5 4 4 4 4 4 4 4 5 6 6 6 7 5 5 5 5 5 5 4 5 5 6 6 6 6 7 6 6 7 6 5 4 4 4 4 5
3 3 3 4 4 4 3 4 4 4 4 4 4 4 5 6 5 5 5 5 5 5 5 5 5 4 3 4 4 4 4 5 6 6 6 7 6 5 5 5 5 4 4
2 3 3 4 4 3 4 4 3 3 4 4 3 4 4 4 3 4 4 3 3 4 4 4 4 5 5 4 4 4 4 4 4 5 6 5 5 5 4 2 2 2 4
3 3 2 3 3 4 4 3 2 3 3 2 2 2 2 3 2 2 3 3 3 3 3 3 4 5 4 4 4 4 5 5 3 3 3 4 4 4 5 5 5 4 3
2 1 2 2 3 3 2 2 2 1 1 1 1 1 1 2 2 2 3 3 4 4 3 3 4 4 4 4 5 5 6 5 3 2 2 3 2 2 3 4 5 5 5
1 1 1 1 1 1 2 1 2 2 2 0 1 2 2 2 2 2 3 4 4 4 4 4 4 4 4 4 4 5 5 3 2 1 2 2 3 3 4 4 5 6 6
2 1 1 1 1 1 2 2 2 2 2 1 0 2 3 3 3 3 2 2 3 3 3 3 3 3 2 2 3 3 3 2 2 2 3 3 4 4 3 3 3 4 4
2 1 1 1 1 1 1 1 2 2 2 1 1 1 2 2 2 2 2 2 1 2 2 2 2 1 1 1 1 1 2 2 2 3 3 3 3 2 2 2 2 3 3
2 1 1 1 1 1 1 1 1 1 2 3 2 2 2 2 4 3 2 2 2 2 1 1 1 1 1 2 2 2 2 1 2 2 2 2 2 2 3 2 2 2 3
2 2 1 1 1 2 2 2 3 1 1 1 3 3 2 3 3 2 3 3 3 1 0 1 1 2 2 2 2 2 2 2 2 2 2 2 2 3 3 3 2 2 3
3 2 1 1 2 1 1 1 1 3 5 3 1 1 1 1 2 2 2 2 1 1 0 2 2 2 2 2 2 2 2 2 2 2 2 2 2 2 2 3 3 3 3
2 2 2 2 2 1 1 1 1 1 1 2 2 2 1 2 2 2 1 2 2 1 1 2 3 3 2 2 2 2 2 2 2 2 2 2 2 2 2 3 3 3 4
2 1 1 2 2 1 1 1 1 1 0 1 1 2 2 2 2 2 1 1 0 1 1 1 2 2 2 2 2 2 2 2 2 2 2 2 2 2 3 3 3 4 4
2 2 2 2 2 2 1 1 0 0 0 1 1 2 1 2 2 2 1 1 1 2 2 2 2 2 2 2 2 2 2 2 2 2 2 2 2 2 3 3 3 4 4
2 2 3 2 2 1 1 1 0 0 1 1 2 2 1 0 1 2 2 1 1 2 2 2 2 2 2 2 2 2 3 3 2 2 2 2 2 2 3 3 3 3 4
2 2 2 1 1 1 1 1 0 0 0 1 2 2 1 1 1 2 2 2 2 1 1 1 2 1 1 2 2 2 2 3 3 3 3 3 3 3 3 3 3 4 4
2 2 2 2 1 1 1 1 0 0 1 1 1 1 2 2 2 2 2 2 2 2 2 1 1 2 2 2 2 2 2 3 4 4 3 3 3 3 3 3 4 4 4
3 2 2 2 2 2 1 1 1 1 1 1 1 2 2 2 2 2 2 2 2 3 3 2 2 2 3 3 3 3 3 4 4 3 4 3 3 3 3 4 4 5 5
3 2 2 1 1 1 1 1 1 1 1 2 2 2 2 2 2 3 3 3 3 3 4 3 3 3 4 5 5 5 5 6 5 5 3 3 3 4 4 4 4 5 4
2 2 2 1 1 1 1 1 1 1 1 1 2 2 2 2 2 2 3 3 3 3 3 3 4 4 5 5 6 6 6 7 7 7 4 3 3 4 4 4 6 5 5
Wind_Direction
191 191 194 194 190 187 191 201 206 207 199 200 203 198 200 201 193 189 209 204 204 220 218 211 228 219 216 221 216 210 213 211 242 270 255 266 260 269 279 255 250 244 246
190 186 193 191 181 189 203 209 207 213 217 212 204 202 207 207 200 199 208 207 208 220 228 223 237 229 225 228 220 223 222 219 227 260 272 266 257 262 278 271 266 253 249
176 174 180 187 189 206 216 214 209 215 222 214 204 208 214 212 206 208 205 209 215 223 226 224 234 223 234 235 228 235 237 231 226 240 263 262 260 265 281 279 272 264 259
176 177 189 198 201 208 219 216 221 222 223 223 217 217 217 215 212 212 209 212 216 224 227 228 230 224 229 232 233 237 237 236 232 238 255 264 263 261 257 265 281 273 276
181 189 204 204 201 199 205 213 219 225 230 229 223 226 223 219 220 212 213 216 218 227 235 238 238 232 227 227 232 231 226 230 235 241 253 261 262 254 256 245 265 281 276
186 197 201 193 192 200 207 211 214 222 226 222 230 231 232 234 220 207 205 218 221 226 240 248 248 246 242 236 235 230 219 223 230 235 246 252 258 251 248 243 253 274 282
189 196 196 192 201 209 209 206 214 220 221 228 237 235 239 240 226 215 209 218 229 235 240 246 253 256 247 250 249 244 238 232 224 226 238 247 253 246 235 240 240 247 258
179 192 197 201 207 206 192 215 224 220 220 229 236 238 241 248 233 221 216 222 236 244 243 240 244 261 260 248 249 253 255 251 239 232 238 247 251 249 234 237 241 250 265
183 205 204 200 201 197 202 215 220 216 221 226 228 231 236 254 235 210 196 212 231 250 255 249 243 250 261 236 233 250 266 273 264 246 245 252 252 246 231 221 228 245 270
207 212 195 185 195 208 216 216 217 220 227 225 231 231 231 255 264 218 195 208 229 246 257 258 251 250 255 229 226 239 256 267 277 283 280 278 266 251 227 222 221 230 255
213 196 178 185 193 200 203 198 184 190 186 212 264 288 272 268 282 246 213 219 230 239 248 258 263 254 247 236 226 238 248 254 258 260 276 287 284 269 253 240 229 224 238
163 154 158 163 198 183 161 164 156 143 130 117 330 325 331 329 312 281 242 233 232 233 249 260 266 264 249 242 237 247 248 233 237 249 272 279 276 273 271 264 252 246 243
132 151 162 134 111 125 151 161 152 140 145 142 3 315 320 332 332 326 297 250 241 238 254 267 282 285 254 247 252 247 228 223 227 243 255 262 262 266 273 275 273 269 266
147 165 158 141 97 78 101 144 154 163 160 171 200 272 301 321 325 327 326 314 289 265 271 287 294 315 304 291 308 273 243 231 224 242 258 271 280 289 286 282 279 284 281
141 155 149 140 124 93 70 49 163 173 179 190 215 215 240 283 284 266 268 292 287 267 279 309 326 343 331 318 309 289 269 246 239 256 261 276 293 296 298 300 287 284 282
149 159 162 150 129 118 90 36 33 59 55 180 193 193 231 248 280 275 270 273 287 305 96 295 297 287 280 281 283 290 287 275 262 255 259 265 276 285 298 306 300 285 284
168 171 165 155 147 140 128 114 42 24 38 39 31 231 226 275 308 318 316 302 292 138 99 284 285 284 282 288 289 287 287 281 269 262 263 269 273 278 284 291 293 291 292
142 150 146 157 153 148 147 151 151 137 33 3 3 359 337 331 330 338 11 56 39 69 259 272 276 278 275 277 285 287 286 287 279 277 281 279 274 271 277 285 285 285 289
112 111 114 121 123 125 124 126 127 121 105 346 350 352 349 346 346 353 61 69 17 308 294 289 289 289 294 295 291 280 274 276 282 288 293 289 286 281 283 287 287 288 288
103 98 105 114 112 107 109 117 106 104 30 292 299 309 349 30 6 352 11 3 339 314 310 310 313 312 309 308 300 302 304 300 298 296 297 301 303 295 292 299 300 301 299
96 93 92 96 107 114 113 130 179 197 249 279 298 313 308 324 305 313 325 327 316 306 308 311 316 322 329 335 338 340 326 311 307 299 296 295 295 296 298 300 306 310 315
107 92 83 89 85 89 91 88 98 116 318 311 317 341 347 357 325 323 330 328 325 328 321 313 316 324 336 339 343 343 329 315 315 312 303 300 301 300 302 312 321 320 321
101 93 76 65 64 72 73 52 34 8 340 328 327 353 18 11 352 345 343 342 348 355 356 3 6 358 351 339 332 328 318 312 311 312 313 313 309 305 304 305 309 313 315
109 100 87 73 66 63 62 50 40 30 14 358 5 14 14 9 360 355 357 4 8 12 5 1 3 358 350 344 342 340 334 328 324 315 308 303 310 313 312 309 306 302 300
109 104 92 81 75 67 62 59 56 48 38 33 33 28 19 19 19 16 13 13 12 14 10 357 348 348 352 353 350 348 352 352 347 339 327 321 317 318 315 307 304 304 303
102 102 96 86 75 79 92 90 77 67 55 47 40 34 27 25 22 18 12 11 10 9 2 353 354 354 353 351 350 350 353 356 354 349 337 324 319 316 318 313 311 308 306
Height
1518 1520 1521 1523 1525 1526 1527 1528 1529 1530 1531 1532 1533 1534 1534 1535 1535 1536 1536 1537 1537 1537 1538 1538 1538 1539 1539 1540 1540 1540 1540 1540 1539 1539 1539 1539 1539 1539 1538 1538 1538 1537 1537
1516 1518 1519 1521 1523 1524 1525 1526 1527 1528 1529 1530 1531 1531 1532 1533 1533 1533 1534 1534 1535 1535 1535 1536 1536 1536 1537 1537 1537 1537 1537 1537 1537 1536 1536 1536 1535 1535 1535 1534 1534 1534 1533
1513 1515 1517 1519 1520 1521 1522 1524 1525 1525 1526 1527 1528 1528 1529 1530 1531 1531 1531 1532 1532 1532 1533 1533 1533 1533 1533 1534 1534 1534 1534 1534 1533 1533 1532 1532 1532 1531 1531 1530 1530 1530 1530
1511 1513 1514 1516 1517 1518 1520 1521 1522 1523 1523 1524 1525 1526 1526 1527 1527 1528 1528 1529 1529 1529 1530 1530 1530 1530 1530 1530 1530 1530 1530 1530 1530 1529 1528 1528 1528 1527 1527 1526 1526 1526 1526
1509 1510 1511 1512 1514 1515 1517 1518 1518 1520 1520 1521 1522 1522 1523 1524 1524 1524 1525 1525 1525 1526 1526 1526 1527 1527 1527 1527 1527 1526 1526 1526 1526 1525 1525 1524 1524 1523 1523 1523 1523 1522 1522
1506 1507 1509 1510 1511 1512 1513 1514 1515 1516 1517 1518 1519 1519 1519 1520 1520 1521 1522 1522 1522 1522 1522 1522 1523 1523 1523 1523 1523 1523 1522 1522 1521 1521 1520 1520 1520 1520 1520 1519 1519 1518 1517
1504 1504 1506 1507 1508 1509 1510 1510 1511 1512 1513 1514 1515 1515 1515 1516 1516 1517 1518 1518 1518 1518 1518 1518 1518 1518 1518 1518 1518 1518 1518 1517 1517 1517 1516 1516 1516 1516 1516 1515 1515 1514 1514
1501 1502 1503 1504 1505 1505 1505 1507 1507 1508 1509 1509 1510 1511 1511 1511 1512 1513 1513 1514 1514 1514 1514 1514 1514 1514 1514 1514 1514 1513 1513 1513 1512 1512 1512 1512 1512 1512 1512 1512 1511 1510 1510
1499 1500 1500 1501 1501 1501 1501 1502 1503 1504 1505 1505 1505 1506 1507 1507 1508 1508 1509 1509 1508 1508 1509 1509 1509 1509 1509 1509 1509 1509 1508 1508 1508 1508 1508 1508 1508 1508 1508 1507 1506 1506 1504
1497 1498 1498 1498 1498 1498 1499 1499 1500 1501 1501 1501 1501 1502 1503 1503 1503 1504 1505 1504 1504 1504 1504 1504 1505 1504 1504 1505 1505 1504 1503 1503 1504 1504 1504 1504 1503 1503 1503 1502 1502 1501 1500
1495 1495 1495 1495 1495 1496 1496 1496 1497 1497 1497 1498 1498 1499 1499 1499 1499 1499 1500 1500 1499 1499 1499 1499 1500 1500 1500 1500 1500 1500 1499 1499 1499 1499 1499 1499 1498 1498 1498 1497 1497 1496 1495
1493 1492 1492 1493 1493 1494 1493 1494 1494 1495 1495 1495 1495 1496 1496 1495 1495 1495 1496 1496 1496 1495 1495 1495 1495 1496 1495 1495 1495 1495 1495 1495 1494 1494 1493 1493 1493 1493 1492 1492 1492 1491 1491
1491 1491 1491 1491 1491 1491 1491 1491 1492 1492 1492 1492 1493 1492 1492 1492 1492 1492 1492 1491 1491 1491 1491 1491 1491 1491 1491 1491 1490 1491 1491 1490 1490 1489 1488 1488 1488 1488 1487 1487 1487 1486 1485
1490 1490 1489 1489 1489 1489 1489 1490 1490 1490 1490 1490 1490 1490 1489 1489 1489 1488 1488 1487 1487 1486 1486 1486 1487 1486 1486 1486 1486 1486 1485 1485 1485 1484 1483 1483 1483 1483 1482 1481 1480 1480 1479
1488 1488 1488 1488 1488 1488 1488 1488 1488 1488 1489 1488 1488 1487 1486 1485 1486 1486 1486 1485 1484 1483 1483 1482 1482 1482 1481 1481 1481 1481 1480 1480 1479 1479 1478 1478 1478 1477 1477 1476 1475 1474 1473
1487 1487 1487 1487 1487 1486 1486 1486 1487 1488 1487 1487 1486 1486 1484 1484 1484 1484 1483 1482 1481 1480 1479 1478 1478 1477 1477 1477 1476 1476 1476 1475 1475 1474 1474 1473 1472 1472 1471 1471 1470 1470 1469
1485 1486 1486 1486 1485 1485 1485 1485 1485 1486 1486 1485 1485 1484 1484 1483 1482 1481 1480 1479 1478 1477 1476 1475 1475 1475 1474 1474 1473 1473 1472 1472 1471 1470 1469 1468 1468 1468 1467 1466 1466 1465 1464
1484 1484 1484 1484 1484 1484 1485 1485 1485 1484 1484 1483 1483 1483 1482 1481 1480 1479 1478 1476 1475 1474 1473 1473 1473 1472 1471 1470 1470 1469 1469 1468 1468 1466 1465 1465 1465 1464 1463 1462 1461 1460 1459
1483 1483 1483 1483 1483 1484 1484 1484 1484 1483 1482 1482 1482 1482 1481 1480 1479 1478 1476 1475 1473 1472 1472 1471 1470 1469 1468 1467 1467 1466 1465 1465 1464 1463 1462 1462 1461 1460 1459 1458 1458 1456 1455
1482 1482 1482 1483 1483 1483 1483 1483 1482 1482 1481 1481 1481 1480 1480 1479 1477 1476 1475 1473 1472 1471 1470 1469 1468 1467 1466 1465 1464 1463 1462 1461 1460 1460 1459 1458 1458 1457 1456 1455 1454 1452 1450
1481 1482 1482 1482 1483 1482 1482 1482 1481 1481 1480 1480 1480 1479 1478 1477 1476 1475 1474 1472 1471 1470 1469 1467 1466 1466 1464 1463 1461 1460 1459 1458 1457 1457 1456 1455 1454 1453 1452 1451 1449 1448 1446
1481 1481 1481 1482 1482 1482 1481 1481 1481 1480 1479 1479 1478 1477 1477 1475 1474 1473 1472 1471 1469 1468 1467 1466 1465 1464 1462 1461 1460 1458 1457 1456 1455 1454 1453 1452 1451 1449 1448 1447 1445 1444 1443
1481 1481 1481 1481 1481 1481 1480 1480 1480 1479 1479 1478 1477 1476 1475 1474 1473 1472 1471 1469 1468 1467 1466 1465 1463 1462 1461 1459 1458 1457 1455 1454 1453 1451 1450 1448 1447 1446 1445 1443 1441 1440 1439
1481 1481 1480 1480 1480 1480 1479 1479 1479 1479 1478 1478 1476 1475 1474 1473 1472 1471 1469 1468 1467 1465 1464 1463 1461 1460 1459 1457 1456 1454 1453 1452 1450 1449 1447 1445 1444 1443 1441 1440 1438 1437 1435
1481 1481 1481 1480 1480 1479 1479 1479 1479 1478 1478 1477 1476 1474 1473 1472 1471 1469 1468 1467 1465 1464 1462 1461 1460 1458 1456 1455 1454 1452 1451 1449 1447 1446 1444 1442 1441 1439 1438 1436 1435 1433 1432
1481 1481 1481 1480 1480 1479 1479 1478 1478 1477 1477 1476 1475 1474 1472 1471 1470 1468 1467 1465 1464 1462 1461 1459 1457 1456 1454 1453 1451 1449 1448 1446 1445 1443 1441 1439 1437 1436 1434 1433 1431 1429 1428